EW9776 Weather Reports


time (UTC)temp
C
wind
direction
speed
KPH
gust
KPH
rain 1hr
cm
rain 24hr
cm
rain mn
cm
humidity
%
barometer
mb
20260906203041 13 204 4.8 8.0 0.00 0.61 0.53 90 1018.8
20260906201537 12 187 3.2 8.0 0.00 0.61 0.53 90 1018.8
20260906200044 12 157 0.0 3.2 0.00 0.61 0.53 89 1018.8
20260906193038 12 151 0.0 3.2 0.00 0.61 0.53 89 1018.9
20260906191535 12 152 0.0 0.0 0.00 0.61 0.53 89 1018.9
20260906184608 11 149 0.0 3.2 0.00 0.61 0.53 93 1018.9
20260906181535 11 135 0.0 3.2 0.00 0.61 0.53 97 1019.0
20260906180035 11 47 0.0 3.2 0.00 0.61 0.53 97 1018.9
20260906174531 11 22 0.0 1.6 0.05 0.61 0.53 98 1018.9
20260906170032 11 7 4.8 9.7 0.05 0.61 0.48 98 1018.8
20260906164538 11 357 3.2 8.0 0.00 0.56 0.48 98 1018.7
20260906163033 11 35 3.2 9.7 0.00 0.56 0.48 98 1018.7
20260906161609 11 24 3.2 6.4 0.00 0.56 0.48 98 1018.7
20260906154642 11 44 3.2 6.4 0.08 0.56 0.48 98 1018.6
20260906153034 11 45 1.6 6.4 0.15 0.56 0.48 98 1018.5
20260906151534 11 149 0.0 4.8 0.15 0.58 0.46 98 1018.3
20260906150035 11 157 0.0 0.0 0.13 0.56 0.41 98 1018.1
20260906144536 11 128 0.0 4.8 0.08 0.51 0.33 98 1018.0
20260906143037 11 360 0.0 4.8 0.08 0.43 0.33 97 1017.6
20260906140034 11 130 0.0 3.2 0.10 0.43 0.33 97 1017.3
20260906134643 11 116 0.0 4.8 0.10 0.43 0.25 97 1017.3
20260906131533 11 128 0.0 3.2 0.00 0.33 0.23 97 1017.0
20260906130108 11 165 0.0 4.8 0.00 0.33 0.23 97 1017.2
20260906124536 11 154 0.0 1.6 0.00 0.33 0.23 97 1017.2
20260906123036 11 144 0.0 3.2 0.00 0.33 0.23 97 1017.3
20260906120033 11 157 0.0 3.2 0.00 0.33 0.23 96 1017.5
20260906114535 11 240 0.0 4.8 0.00 0.33 0.23 96 1017.5
20260906113033 11 185 3.2 6.4 0.00 0.33 0.23 96 1017.4
20260906104531 11 72 3.2 8.0 0.03 0.33 0.23 95 1017.7
20260906103034 11 139 1.6 9.7 0.08 0.33 0.23 95 1017.8
20260906101534 11 181 0.0 8.0 0.10 0.33 0.23 94 1018.0
20260906100034 11 126 1.6 8.0 0.18 0.33 0.20 93 1017.9
20260906094536 11 181 3.2 12.9 0.20 0.30 0.15 92 1017.9
20260906093034 11 193 6.4 16.1 0.15 0.25 0.13 91 1017.9
20260906091533 11 201 9.7 17.7 0.13 0.23 0.05 90 1017.8
20260906090034 12 188 9.7 17.7 0.05 0.15 0.00 89 1017.7
20260906084535 12 195 9.7 19.3 0.00 0.10 0.00 88 1018.0
20260906083035 12 191 4.8 12.9 0.00 0.10 0.00 88 1018.0
20260906081530 11 195 3.2 11.3 0.00 0.10 0.00 89 1017.9
20260906080034 12 197 4.8 8.0 0.00 0.10 0.00 88 1017.8
20260906074611 12 192 4.8 9.7 0.00 0.10 0.00 87 1017.9
20260906071532 12 131 1.6 8.0 0.00 0.10 0.00 87 1018.0
20260906070111 11 189 4.8 11.3 0.00 0.10 0.00 89 1018.2
20260906064613 11 126 1.6 4.8 0.00 0.10 0.10 89 1018.3
20260906063033 11 176 3.2 9.7 0.00 0.10 0.10 89 1018.3
20260906061534 12 201 4.8 11.3 0.00 0.10 0.10 87 1018.3
20260906060034 12 212 3.2 14.5 0.00 0.10 0.10 87 1018.4
20260906054533 12 196 4.8 14.5 0.00 0.15 0.10 88 1018.5
20260906053033 12 189 8.0 12.9 0.00 0.15 0.10 89 1018.5
20260906044535 12 172 6.4 16.1 0.00 0.15 0.10 88 1018.6
20260906043109 12 175 8.0 16.1 0.00 0.15 0.10 89 1018.6
20260906041532 13 185 8.0 16.1 0.00 0.15 0.10 90 1018.5
20260906040033 13 192 9.7 16.1 0.00 0.15 0.10 90 1018.5
20260906031544 12 186 6.4 9.7 0.00 0.15 0.10 88 1018.0
20260906031534 13 190 6.4 8.0 0.00 0.15 0.10 85 1018.0
20260906024537 13 189 6.4 11.3 0.00 0.15 0.10 83 1018.1
20260906023034 15 192 6.4 9.7 0.00 0.15 0.10 80 1018.0
20260906021640 16 202 6.4 11.3 0.00 0.15 0.10 77 1018.1
20260906020029 16 201 6.4 12.9 0.00 0.15 0.10 76 1018.1
20260906014529 17 207 4.8 8.0 0.00 0.15 0.10 73 1018.0
20260906013035 18 197 4.8 9.7 0.00 0.15 0.10 71 1018.1
20260906011532 18 199 4.8 8.0 0.00 0.15 0.10 69 1018.2
20260906010034 18 197 4.8 8.0 0.03 0.15 0.10 70 1018.3
20260906004537 18 200 3.2 6.4 0.03 0.15 0.10 72 1018.4
20260906003037 17 155 3.2 8.0 0.03 0.15 0.10 76 1018.5
20260906001535 16 157 3.2 9.7 0.03 0.15 0.08 81 1018.6
20260906000036 15 186 6.4 17.7 0.00 0.13 0.08 83 1018.7
20260905234535 15 203 9.7 20.9 0.05 0.13 0.08 83 1018.7
20260905233035 15 208 8.0 16.1 0.05 0.13 0.08 84 1018.5
20260905230032 16 212 8.0 19.3 0.05 0.13 0.03 71 1018.5
20260905224535 17 267 3.2 6.4 0.00 0.08 0.03 67 1018.4
20260905223034 17 306 1.6 6.4 0.00 0.08 0.03 66 1018.3
20260905221537 18 345 3.2 8.0 0.00 0.08 0.03 63 1018.2
20260905213038 18 229 0.0 6.4 0.00 0.08 0.03 65 1018.7